Regional Weather Roundup
Issued by NWS

Home | Current Version | Previous Version | Graphics & Text | Print | Product List | Glossary On
Versions: 1 2 3 4 5 6 7 8 9 10 11 12 13 14 15 16 17 18 19 20 21 22 23 24 25 26 27 28 29 30 31 32 33 34 35 36 37 38 39 40 41 42 43 44 45 46 47 48 49 50
000
ASUS43 KOAX 151110
RWRNE

WEATHER ROUNDUP FOR NEBRASKA
NATIONAL WEATHER SERVICE OMAHA NE
500 AM CST FRI DEC 15 2017

NOTES: SATELLITE DATA IS BEING USED TO AUGMENT CLOUD COVER ABOVE
       12000 FEET.
       "FAIR" INDICATES FEW OR NO CLOUDS BELOW 12,000 FEET WITH NO
       SIGNIFICANT WEATHER AND/OR OBSTRUCTIONS TO VISIBILITY.


NEZ001>004-019>022-054>056-151200-
NEBRASKA PANHANDLE

CITY           SKY/WX    TMP DP  RH WIND       PRES   REMARKS
SCOTTSBLUFF    CLOUDY    11   8  88 NW7       30.04F WCI   0
ALLIANCE       CLOUDY     8   6  92 W9        30.01F WCI  -5
CHADRON        CLOUDY    19  14  81 SW9       29.99F WCI   8
GORDON         FAIR      22  17  79 W9        29.96F WCI  12
KIMBALL        CLOUDY    23  12  63 W13       30.05F WCI  11
SIDNEY         CLOUDY    17  13  84 W13       30.05F WCI   4
$$

NEZ057>060-069>072-079>082-151200-
SOUTHWEST NEBRASKA

CITY           SKY/WX    TMP DP  RH WIND       PRES   REMARKS
NORTH PLATTE   CLOUDY    16  12  84 W6        30.08F WCI   7
IMPERIAL       CLOUDY    18  14  84 W12       30.10F WCI   5
LEXINGTON      CLOUDY    20  17  88 W3        30.11F
MCCOOK         CLOUDY    16  14  92 W8        30.13F WCI   5
OGALLALA       CLOUDY    17  13  86 W13       30.07F WCI   4
$$

NEZ005>010-023>029-035>040-094-151200-
NORTH CENTRAL NEBRASKA

CITY           SKY/WX    TMP DP  RH WIND       PRES   REMARKS
VALENTINE      CLEAR     22  18  85 SW9       30.00F WCI  12
AINSWORTH      PTCLDY    25  22  87 W6        30.00F WCI  18
BROKEN BOW     CLEAR     21  17  84 SW8       30.06F WCI  11
O`NEILL        CLEAR     26  24  91 W9        30.02F WCI  17
ORD            CLOUDY    26  22  84 SW13      30.05F WCI  15
THEDFORD       PTCLDY    22  19  86 W5        30.02F WCI  16
$$

NEZ041-046>049-061>064-073>077-083>087-151200-
SOUTH CENTRAL NEBRASKA

CITY           SKY/WX    TMP DP  RH WIND       PRES   REMARKS
GRAND ISLAND   CLEAR     26  22  84 W14       30.11F WCI  14
AURORA         CLEAR     26  22  87 W12       30.11S WCI  15
HASTINGS       CLEAR     24  19  81 W9        30.12F WCI  14
HEBRON         CLEAR     25  21  85 W6        30.16S WCI  18
HOLDREGE       CLOUDY    22  21  95 W7        30.12F WCI  14
KEARNEY        CLEAR     25  21  85 SW9       30.11F WCI  15
YORK           CLEAR     25  23  93 CALM      30.11F
$$

NEZ011>018-030>034-042>045-151200-
NORTHEAST NEBRASKA

CITY           SKY/WX    TMP DP  RH WIND       PRES   REMARKS
NORFOLK        CLOUDY    31  25  78 SW10      30.04F WCI  22
ALBION         CLOUDY    29  25  84 W7        30.06F WCI  22
BLAIR          CLOUDY    33  28  80 SW9       30.06F WCI  25
COLUMBUS       CLOUDY    29  25  85 SW10      30.08F WCI  20
FREMONT        CLOUDY    33  25  73 W12       30.07F WCI  24
TEKAMAH        CLOUDY    33  24  69 W13       30.05F WCI  24
WAYNE          CLOUDY    33  25  74 SW12      30.03F WCI  24
$$

NEZ050>053-065>068-078-088>093-151200-
SOUTHEAST NEBRASKA

CITY           SKY/WX    TMP DP  RH WIND       PRES   REMARKS
LINCOLN        CLOUDY    33  27  78 W8        30.12F WCI  26
OMAHA EPPLEY   CLOUDY    34  25  69 SW10      30.08F WCI  26
BEATRICE       CLOUDY    28  26  94 SW5       30.13F WCI  23
FALLS CITY     CLOUDY    31  25  78 NW6       30.13F WCI  25
NEBRASKA CITY  CLOUDY    32  28  86 W8        30.11F WCI  25
PLATTSMOUTH    CLOUDY    33  28  83 SW9       30.09F WCI  25
$$

NEZ044-045-051>053-067-151200-
OMAHA AREA

CITY           SKY/WX    TMP DP  RH WIND       PRES   REMARKS
OMAHA EPPLEY   CLOUDY    34  25  69 SW10      30.08F WCI  26
BLAIR          CLOUDY    33  28  80 SW9       30.06F WCI  25
FREMONT        CLOUDY    33  25  73 W12       30.07F WCI  24
MILLARD        CLOUDY    35  28  78 SW8       30.09F WCI  28
OFFUTT AFB     CLOUDY    33  26  75 W8        30.08F WCI  26
PLATTSMOUTH    CLOUDY    33  28  83 SW9       30.09F WCI  25
WAHOO          CLOUDY    33  27  77 W12       30.09F WCI  24
$$




USA.gov is the U.S. government's official web portal to all federal, state and local government web resources and services.